sat.trackr.live / text

‹ back to catalog

KUIPER-00083

NORAD 64829 · 2025-151P

PAYLOAD ACTIVE UNKNOWN

§ Identity

Operator
Country
US
Launch date
2025-07-16
Launch site
AFETR
Launch vehicle
Mass (kg)
RCS (m²)

External: N2YO · Heavens-Above · Gunter

§ Orbital elements

Epoch: 2026-09-21T20:55:49.662048Z

Period
97.30 min
Inclination
51.9013°
Eccentricity
0.0001185
Mean motion
14.79938544 rev/d
Perigee alt
628.7 km
Apogee alt
630.3 km
Semi-major
7,007.7 km
B*
2.6523e-4
RAAN
148.0876°
Arg perigee
92.7300°
Mean anomaly
267.3798°
Rev number
6,561

§ Raw data

KUIPER-000831 64829U 25151P   26264.87210257  .00001801  00000+0  26523-3 0  99952 64829  51.9013 148.0876 0001185  92.7300 267.3798 14.79938544 65614

JSON: /api/v1/satellites/64829 · /tle

For live sub-satellite position, see the globe view (requires WebGL).

§ Visibility from observer

Set your observer location to see the next 7 days of passes ≥ 10°. The values pass through the URL so the page stays shareable.

No JS? Fill the form by hand. The geolocation button needs JavaScript.